Weather History for Mountain Home, ID

Change the Weather History Date:

Thursday, November 8, 2012

  Actual Average Record
Temperature  
Mean Temperature 44 °F 42 °F  
Max Temperature 56 °F 53 °F 78 °F (1999)
Min Temperature 31 °F 30 °F 9 °F (1936)
Degree Days  
Heating Degree Days 21 23  
Month to date heating degree days 125 171  
Cooling Degree Days 0 0  
Month to date cooling degree days 0 0  
Moisture  
Dew Point 36 °F    
Average Humidity 79    
Maximum Humidity 100    
Minimum Humidity 50    
Precipitation  
Precipitation T in 0.03 in 0.31 in (1973)
Month to date precipitation 0.01 0.29  
Sea Level Pressure  
Sea Level Pressure 29.66 in    
Wind  
Wind Speed 6 mph (NW)    
Max Wind Speed 25 mph    
Max Gust Speed -    
Visibility 10 miles    
Events Rain    
T = Trace of Precipitation, MM = Missing Value Source: NWS Daily Summary

Daily Weather History Graph

Daily Weather History Graph

Search for Another Location

Airport:

Trip Planner

Search our weather history database for the weather conditions in past years. The results will help you decide how hot, cold, wet, or windy it might be!

Date:

Astronomy

Nov. 08, 2012 Rise Set
Actual Time 7:27 AM MST 5:26 PM MST
Civil Twilight 6:57 AM MST 5:56 PM MST
Nautical Twilight 6:23 AM MST 6:30 PM MST
Astronomical Twilight 5:50 AM MST 7:03 PM MST
Moon 1:18 AM MST (11/8) 2:17 PM MST (11/8)
Length of Visible Light 10h 58m
Length of Day
9h 58m
Waning Crescent, 32% of the Moon is Illuminated
Nov 8
Waning Crescent
Nov 13
New
Nov 20
First Quarter
Nov 28
Full
Dec 6
Last Quarter

Hourly Weather History & Observations

Time (MST) Temp. Windchill Dew Point Humidity Pressure Visibility Wind Dir Wind Speed Gust Speed Precip Events Conditions
12:55 AM 39.9 °F - 31.5 °F 72% 29.82 in 10.0 mi Calm Calm - N/A   Overcast
1:55 AM 39.4 °F - 32.0 °F 75% 29.80 in 10.0 mi Calm Calm - N/A   Overcast
2:55 AM 39.6 °F - 32.7 °F 76% 29.78 in 10.0 mi Calm Calm - N/A   Overcast
3:55 AM 40.3 °F - 33.4 °F 77% 29.76 in 10.0 mi Calm Calm - N/A   Mostly Cloudy
4:55 AM 40.3 °F 38.2 °F 32.9 °F 75% 29.72 in 10.0 mi ENE 3.5 mph - N/A   Mostly Cloudy
5:55 AM 39.0 °F 34.0 °F 34.5 °F 84% 29.71 in 10.0 mi ESE 6.9 mph - N/A   Overcast
6:55 AM 40.5 °F 38.4 °F 35.4 °F 82% 29.70 in 10.0 mi East 3.5 mph - N/A   Mostly Cloudy
7:55 AM 39.9 °F 35.1 °F 36.9 °F 89% 29.68 in 10.0 mi ESE 6.9 mph - N/A   Scattered Clouds
8:55 AM 40.5 °F 35.1 °F 37.0 °F 88% 29.67 in 10.0 mi East 8.1 mph - N/A   Scattered Clouds
9:55 AM 45.1 °F 42.0 °F 37.2 °F 74% 29.65 in 10.0 mi East 5.8 mph - N/A   Clear
10:55 AM 48.7 °F - 38.7 °F 68% 29.64 in 10.0 mi ESE 9.2 mph - N/A   Partly Cloudy
11:55 AM 50.7 °F - 37.8 °F 61% 29.61 in 10.0 mi Calm Calm - N/A   Partly Cloudy
12:55 PM 55.6 °F - 37.4 °F 50% 29.56 in 10.0 mi Calm Calm - N/A   Scattered Clouds
1:55 PM 52.2 °F - 34.7 °F 51% 29.57 in 10.0 mi NW 17.3 mph - N/A   Overcast
2:03 PM 50.0 °F - 33.8 °F 54% 29.56 in 9.0 mi NNW 19.6 mph - N/A Rain Light Rain Showers
2:23 PM 48.2 °F - 37.4 °F 66% 29.57 in 9.0 mi NNW 25.3 mph - N/A Rain Light Rain
2:55 PM 46.4 °F 40.7 °F 42.8 °F 87% 29.57 in 10.0 mi NNE 12.7 mph - 0.00 in   Light Drizzle
3:23 PM 46.4 °F 45.2 °F 44.6 °F 93% 29.57 in 10.0 mi SSW 3.5 mph - N/A   Mostly Cloudy
3:55 PM 46.0 °F 39.6 °F 41.0 °F 83% 29.60 in 10.0 mi WNW 15.0 mph - 0.00 in   Mostly Cloudy
4:55 PM 45.9 °F 38.0 °F 37.9 °F 74% 29.58 in 10.0 mi NNW 20.7 mph - N/A   Scattered Clouds
5:55 PM 43.5 °F 36.4 °F 39.0 °F 84% 29.62 in 10.0 mi NW 15.0 mph - N/A   Scattered Clouds
6:55 PM 42.3 °F 36.3 °F 39.0 °F 88% 29.64 in 10.0 mi WNW 10.4 mph - N/A   Mostly Cloudy
7:37 PM 42.8 °F 37.0 °F 35.6 °F 76% 29.65 in 10.0 mi WNW 10.4 mph - N/A   Scattered Clouds
7:55 PM 41.2 °F 34.5 °F 34.3 °F 77% 29.64 in 10.0 mi NW 11.5 mph - N/A   Partly Cloudy
8:55 PM 38.3 °F 30.9 °F 36.7 °F 94% 29.65 in 10.0 mi West 11.5 mph - N/A   Scattered Clouds
9:55 PM 37.0 °F 34.5 °F 36.9 °F 99% 29.67 in 10.0 mi West 3.5 mph - N/A   Mostly Cloudy
10:41 PM 35.6 °F 28.6 °F 35.6 °F 100% 29.67 in 10.0 mi West 9.2 mph - N/A   Scattered Clouds
10:55 PM 34.0 °F 27.2 °F 34.0 °F 100% 29.68 in 10.0 mi WNW 8.1 mph - N/A   Partly Cloudy
11:55 PM 30.9 °F 23.5 °F 30.9 °F 100% 29.67 in 10.0 mi WNW 8.1 mph - N/A   Scattered Clouds